NIMBUS 2 DEB, 40646

Orbit data source: Space-Track

NIMBUS 2 DEB, 40646 is space debris in SSO originally from a launch on Sun, 15 May 1966 UTC launched from the Air Force Western Test Range (AFWTR). Debris objects in space refer to the collection of defunct objects orbiting the Earth. Examples of debris include non-operational satellites, rocket bodies, and fragments generated from explosions, collisions, or faulty payload assembly.

Loading next visibility...
Identifier
40646, 1966-040BK
Orbit
SSO
Country
Flag of USUS
Related business
Manufacturer
Unknown
Mission
Spacecraft
Bus & Motor
Unknown
Mass
Unknown
Launch date (UTC)
1966-05-15 (60 years ago)
Launch vehicle
Unknown
Launch site
Air Force Western Test Range (AFWTR)
Object type
Payload
Rocket body
Debris
Shape & HBR
Unknown shape, 0.1 m
Radar Cross Section
Small (<0.1 m²)

Expand to show TLE details & history
Last TLE update: 18 hours ago

TLE from 18 hours ago
0 NIMBUS 2 DEB
1 40646U 66040BK  25350.12862799  .00001553  00000-0  25584-2 0  9995
2 40646 100.3684 231.8197 0047141 213.4554 146.3596 13.48522250519298
Epoch: 2025-12-16T03:05Z
TLE epoch observation values (Epoch: 2025-12-16T03:05:13.458Z)
Latitude
-0.00006°
Longitude
100.49635°
Altitude
1,109.777 km
Speed
7.283 km/s
True Right ascension
15h 27m 16s
True Declination
0° 00' 00"
Sunlit
Object was in daylight at epoch
Visualization orbit readout
Latitude
Unknown
Longitude
Unknown
Altitude
Unknown
Speed
Unknown
Apparent Right ascension
Unknown
Apparent Declination
Unknown
Sunlit
N/A
Visualization observer readout
Local Sidereal Time
19:35:01
Azimuth
Unknown
Elevation
Unknown
Doppler factor
Unknown
Orbital elements
Apogee altitude
1,110.174 km
Perigee altitude
1,039.904 km
Semi-major axis
7,453.176 km
Eccentricity
0.00471
Inclination
100.3684°
RAAN
231.8197°
Arg. of periapsis
213.4554°
True anomaly
146.65739°
Mean anomaly
146.3596°
Eccentric anomaly
146.50864°
Mean motion
3.37311 °/min
Orbital period
106.73 mins
BSTAR
0.0025584
Loading maneuver chart data...
Computing Atmospheric mass density...
Loading historical data...
Loading historical data...
Loading historical data...
Loading historical data...
Loading historical data...
Loading historical data...
Loading historical data...

Documentation

Showing up to 5 results
|